Ellsworth AFB, SD

1:35 PM MDT on July 21, 2017 (GMT -0600)
Ellsworth Air Force Base

Weather History for KRCA - February, 2013

Change the Weather History Date:

Thursday, February 14, 2013

  Actual Average Record
Temperature  
Mean Temperature 22 °F -  
Max Temperature 32 °F 39 °F 56 °F (2011)
Min Temperature 13 °F 18 °F -16 °F (2007)
Degree Days  
Heating Degree Days 42    
Moisture  
Dew Point 19 °F    
Average Humidity 68    
Maximum Humidity 86    
Minimum Humidity 49    
Precipitation  
Precipitation 0.00 in - - ()
Sea Level Pressure  
Sea Level Pressure 30.25 in    
Wind  
Wind Speed 26 mph (NNW)    
Max Wind Speed 40 mph    
Max Gust Speed 48 mph    
Visibility 8 miles    
Events Snow    
Averages and records for this station are not official NWS values.
T = Trace of Precipitation, MM = Missing Value Source: NWS Daily Summary

Daily Weather History Graph

Daily Weather History Graph

Search for Another Location

Airport or City:

Trip Planner

Search our weather history database for the weather conditions in past years. The results will help you decide how hot, cold, wet, or windy it might be!

Date:

Astronomy

Feb. 14, 2013 Rise Set
Actual Time 6:52 AM MST 5:20 PM MST
Civil Twilight 6:23 AM MST 5:50 PM MST
Nautical Twilight 5:49 AM MST 6:24 PM MST
Astronomical Twilight 5:15 AM MST 6:58 PM MST
Moon 8:43 AM MST (2/14) 10:39 PM MST (2/14)
Length of Visible Light 11h 27m
Length of Day
10h 28m
Waxing Crescent, 22% of the Moon is Illuminated
Feb 14
Waxing Crescent
Feb 17
First Quarter
Feb 25
Full
Mar 4
Last Quarter
Mar 11
New

Hourly Weather History & Observations

Time (MST) Temp. Windchill Dew Point Humidity Pressure Visibility Wind Dir Wind Speed Gust Speed Precip Events Conditions
12:55 AM 31.6 °F 19.0 °F 18.0 °F 57% 30.00 in 10.0 mi NW 21.9 mph - N/A   Clear
1:55 AM 30.6 °F 17.0 °F 22.6 °F 72% 30.02 in 10.0 mi NW 24.2 mph 36.8 mph N/A   Scattered Clouds
2:55 AM 31.6 °F 19.7 °F 18.1 °F 57% 30.01 in 10.0 mi West 19.6 mph - N/A   Scattered Clouds
3:55 AM 32.9 °F 21.3 °F 15.8 °F 49% 30.01 in 10.0 mi NW 19.6 mph - N/A   Scattered Clouds
4:55 AM 32.4 °F 19.1 °F 16.5 °F 52% 30.03 in 10.0 mi NNW 25.3 mph 33.4 mph N/A   Mostly Cloudy
5:55 AM 30.7 °F 14.0 °F 15.3 °F 53% 30.04 in 10.0 mi NW 40.3 mph 46.0 mph N/A   Mostly Cloudy
6:16 AM 32.0 °F 16.2 °F 15.8 °F 51% 30.06 in 10.0 mi NW 38.0 mph 44.9 mph N/A   Overcast
6:55 AM 29.3 °F 13.7 °F 16.0 °F 58% 30.10 in 10.0 mi NW 31.1 mph 38.0 mph 0.00 in   Mostly Cloudy
7:55 AM 30.0 °F 14.0 °F 15.8 °F 56% 30.13 in 10.0 mi NW 34.5 mph 47.2 mph N/A   Scattered Clouds
8:55 AM 29.5 °F 13.1 °F 19.9 °F 68% 30.18 in 10.0 mi NNW 35.7 mph 48.3 mph N/A Snow Light Snow
9:09 AM 28.4 °F 11.6 °F 19.4 °F 69% 30.20 in 10.0 mi NNW 35.7 mph 46.0 mph N/A   Mostly Cloudy
9:32 AM 28.4 °F 11.6 °F 19.4 °F 69% 30.22 in 5.0 mi NNW 35.7 mph 42.6 mph N/A Snow Light Snow Grains
9:54 AM 28.4 °F 13.0 °F 19.4 °F 69% 30.23 in 10.0 mi NNW 28.8 mph 40.3 mph N/A   Overcast
9:55 AM 29.1 °F 14.0 °F 19.6 °F 68% 30.23 in 10.0 mi NNW 28.8 mph 40.3 mph 0.00 in   Overcast
10:55 AM 28.9 °F 13.5 °F 19.8 °F 69% 30.26 in 6.0 mi NNW 29.9 mph 40.3 mph 0.00 in Snow Light Snow
11:03 AM 30.2 °F 16.2 °F 19.4 °F 64% 30.26 in 5.0 mi NNW 25.3 mph 36.8 mph N/A Snow Light Snow
11:26 AM 30.2 °F 16.2 °F 19.4 °F 64% 30.27 in 10.0 mi NNW 25.3 mph 33.4 mph N/A Snow Light Snow
11:37 AM 30.2 °F 16.2 °F 19.4 °F 64% 30.27 in 4.0 mi NNW 25.3 mph 36.8 mph N/A Snow Light Snow
11:55 AM 28.8 °F 14.0 °F 20.7 °F 72% 30.27 in 4.0 mi NNW 26.5 mph 36.8 mph 0.00 in Snow Light Snow
12:25 PM 30.2 °F 16.2 °F 19.4 °F 64% 30.27 in 10.0 mi NNW 25.3 mph 32.2 mph N/A   Overcast
12:39 PM 32.0 °F 18.1 °F 19.4 °F 60% 30.26 in 10.0 mi North 27.6 mph 35.7 mph N/A Snow Light Snow
12:55 PM 30.0 °F 16.0 °F 20.8 °F 69% 30.27 in 10.0 mi NW 25.3 mph 35.7 mph 0.00 in Snow Light Snow
12:56 PM 30.2 °F 16.2 °F 21.2 °F 69% 30.27 in 10.0 mi NW 25.3 mph 35.7 mph N/A   Overcast
1:07 PM 32.0 °F 16.5 °F 21.2 °F 64% 30.26 in 10.0 mi NW 35.7 mph 41.4 mph N/A Snow Light Snow
1:12 PM 32.0 °F 17.0 °F 21.2 °F 64% 30.27 in 10.0 mi NW 33.4 mph 43.7 mph N/A   Overcast
1:14 PM 30.2 °F 15.2 °F 21.2 °F 69% 30.27 in 10.0 mi NW 29.9 mph 43.7 mph N/A Snow Light Snow
1:16 PM 30.2 °F 14.9 °F 21.2 °F 69% 30.27 in 10.0 mi NW 31.1 mph 43.7 mph N/A Snow Light Snow
1:33 PM 28.4 °F 13.0 °F 21.2 °F 74% 30.28 in 4.0 mi NW 28.8 mph 36.8 mph N/A Snow Light Snow
1:46 PM 28.4 °F 13.3 °F 23.0 °F 80% 30.30 in 3.0 mi NW 27.6 mph 34.5 mph N/A Snow Light Snow
1:55 PM 29.3 °F 13.3 °F 21.9 °F 74% 30.29 in 4.0 mi NW 33.4 mph - 0.00 in Snow Light Snow
2:15 PM 26.6 °F 12.4 °F 23.0 °F 86% 30.32 in 3.0 mi NNW 21.9 mph 27.6 mph N/A Snow Light Snow
2:16 PM 28.4 °F 14.4 °F 24.8 °F 86% 30.32 in 3.0 mi NNW 23.0 mph 28.8 mph N/A Snow Light Snow
2:22 PM 28.4 °F 14.4 °F 24.8 °F 86% 30.31 in 5.0 mi North 23.0 mph 28.8 mph N/A Snow Light Snow
2:55 PM 28.6 °F 13.5 °F 20.5 °F 72% 30.30 in 10.0 mi NW 27.6 mph 36.8 mph 0.00 in Snow Light Snow
3:00 PM 30.2 °F 16.5 °F 19.4 °F 64% 30.31 in 10.0 mi NNW 24.2 mph 34.5 mph N/A   Mostly Cloudy
3:08 PM 30.2 °F 15.7 °F 21.2 °F 69% 30.31 in 8.0 mi NNW 27.6 mph 33.4 mph N/A Snow Light Snow
3:23 PM 26.6 °F 11.7 °F 21.2 °F 80% 30.33 in 3.0 mi NNW 24.2 mph 29.9 mph N/A Snow Light Snow
3:33 PM 26.6 °F 12.4 °F 21.2 °F 80% 30.32 in 3.0 mi North 21.9 mph 25.3 mph N/A Snow Light Snow
3:55 PM 28.2 °F 15.9 °F 20.5 °F 73% 30.34 in 10.0 mi North 17.3 mph - 0.00 in   Overcast
4:55 PM 26.2 °F 14.2 °F 17.8 °F 70% 30.35 in 10.0 mi NNW 15.0 mph - N/A   Scattered Clouds
5:55 PM 23.5 °F 11.8 °F 12.6 °F 63% 30.38 in 10.0 mi NW 12.7 mph - N/A   Mostly Cloudy
6:55 PM 20.8 °F 8.4 °F 12.2 °F 69% 30.38 in 10.0 mi NNW 12.7 mph - N/A   Clear
7:55 PM 22.6 °F 10.1 °F 12.4 °F 65% 30.38 in 10.0 mi NNW 13.8 mph - N/A   Clear
8:55 PM 20.3 °F 7.7 °F 12.6 °F 72% 30.38 in 10.0 mi NW 12.7 mph - N/A   Clear
9:55 PM 13.6 °F 4.6 °F 8.6 °F 80% 30.40 in 10.0 mi West 5.8 mph - N/A   Clear
10:55 PM 15.8 °F - 8.4 °F 73% 30.40 in 10.0 mi Calm Calm - N/A   Clear
11:55 PM 16.0 °F 8.8 °F 7.5 °F 69% 30.39 in 10.0 mi WNW 4.6 mph - N/A   Clear